TimePDT,TemperatureF,Dew PointF,Humidity,Sea Level PressureIn,VisibilityMPH,Wind Direction,Wind SpeedMPH,Gust SpeedMPH,PrecipitationIn,Events,Conditions,WindDirDegrees,DateUTC
12:53 AM,57.9,45.0,62,30.13,10.0,NNW,6.9,-,N/A,,Clear,330,2013-07-13 07:53:00
1:53 AM,57.0,45.0,64,30.13,10.0,Variable,4.6,-,N/A,,Clear,0,2013-07-13 08:53:00
2:53 AM,55.9,46.0,69,30.14,10.0,NW,6.9,-,N/A,,Clear,320,2013-07-13 09:53:00
3:53 AM,55.0,46.0,72,30.14,10.0,NNW,4.6,-,N/A,,Clear,330,2013-07-13 10:53:00
4:53 AM,54.0,46.0,75,30.15,10.0,NW,3.5,-,N/A,,Clear,310,2013-07-13 11:53:00
5:53 AM,53.1,45.0,74,30.16,10.0,Calm,Calm,-,N/A,,Clear,0,2013-07-13 12:53:00
6:53 AM,54.0,46.9,77,30.17,10.0,Calm,Calm,-,N/A,,Clear,0,2013-07-13 13:53:00
7:53 AM,55.9,46.9,72,30.17,10.0,North,4.6,-,N/A,,Clear,360,2013-07-13 14:53:00
8:53 AM,59.0,46.0,62,30.18,10.0,NW,4.6,-,N/A,,Clear,320,2013-07-13 15:53:00
9:53 AM,61.0,46.0,58,30.17,10.0,NW,6.9,-,N/A,,Clear,320,2013-07-13 16:53:00
10:53 AM,66.0,46.9,50,30.16,10.0,WNW,9.2,-,N/A,,Clear,300,2013-07-13 17:53:00
11:53 AM,69.1,48.9,49,30.14,10.0,NNW,8.1,-,N/A,,Clear,330,2013-07-13 18:53:00
12:53 PM,73.0,48.9,42,30.12,10.0,WNW,8.1,-,N/A,,Clear,300,2013-07-13 19:53:00
1:53 PM,75.0,46.9,37,30.10,10.0,Variable,3.5,-,N/A,,Clear,0,2013-07-13 20:53:00
2:53 PM,78.1,48.9,36,30.08,10.0,NW,9.2,17.3,N/A,,Clear,320,2013-07-13 21:53:00
3:53 PM,78.1,46.9,33,30.06,10.0,NW,12.7,20.7,N/A,,Clear,320,2013-07-13 22:53:00
4:53 PM,79.0,46.0,31,30.05,10.0,NW,15.0,20.7,N/A,,Clear,320,2013-07-13 23:53:00
5:53 PM,78.1,46.0,32,30.04,10.0,NNW,10.4,17.3,N/A,,Clear,340,2013-07-14 00:53:00
6:53 PM,78.1,44.1,30,30.04,10.0,North,9.2,20.7,N/A,,Clear,350,2013-07-14 01:53:00
7:53 PM,77.0,43.0,30,30.03,10.0,NNW,10.4,16.1,N/A,,Clear,330,2013-07-14 02:53:00
8:53 PM,73.9,42.1,32,30.03,10.0,NW,6.9,-,N/A,,Clear,320,2013-07-14 03:53:00
9:53 PM,69.1,52.0,54,30.05,10.0,NW,11.5,-,N/A,,Clear,320,2013-07-14 04:53:00
10:53 PM,66.9,50.0,54,30.05,10.0,NNW,10.4,17.3,N/A,,Clear,330,2013-07-14 05:53:00
11:53 PM,66.0,51.1,59,30.06,10.0,NW,8.1,-,N/A,,Clear,320,2013-07-14 06:53:00